Zurück zum Katalog

STARLINK-3677

AktivKommunikationVLEO
NORAD 51970·PAYLOAD·🇺🇸 United States

Gestartet Mar 9, 2022 von Cape Canaveral Space Force Station

Loading…

Nächste Überflüge (nächste 24 Stunden)

TLE

AktuellSource: CelesTrak SupGP

Epoche: Sep 14, 2026, 21:32 UTC

1 51970C 22025Q   26257.89770833  .00038168  00000+0  12274-2 0  2570
2 51970  53.1578 236.9395 0001371  95.1927 322.4305 15.31682448    17

Verfolge STARLINK-3677 in Echtzeit mit AllMySat

Download on the App Store